Location: LDNL
(36.4545°S, 141.6685°E)
Time: 16:20:47
(UTC+10:00)

Courier 1B - Pass Details

Date: 14 August 2022
Orbit: 962 x 1209 km, 28.3° (Epoch: 25 September)

Event Time Altitude Azimuth Distance (km) Brightness Sun altitude
Exits shadow 05:26:22 14° 327° (NNW) 2,832 9.6 -22.9°
Maximum altitude 05:26:41 14° 329° (NNW) 2,827 9.6 -22.8°
Drops below altitude 10° 05:30:14 10° 358° (N) 3,076 10.1 -22.1°
Sets 05:34:43 0° 21° (NNE) 3,984 11.0 -21.2°
